Total_Precipitation_Accumulation
0.01 0.02 0.05 0.14 0.26 0.34 0.34 0.36 0.44 0.56 0.63 0.64 0.62 0.73 0.80 0.78 1.19 2.21 1.59 0.99 0.79 0.60 0.42 0.32 0.30 0.27 0.27 0.25 0.27 0.27 0.29 0.32 0.31 0.24 0.23 0.26 0.25 0.25 0.26 0.29 0.38 0.49 0.55 0.56 0.56 0.62 0.61 0.58 0.57
0.01 0.02 0.04 0.13 0.26 0.32 0.35 0.37 0.53 0.65 0.68 0.59 0.58 0.64 0.70 0.73 0.69 0.82 0.84 0.72 0.60 0.54 0.52 0.38 0.36 0.31 0.27 0.27 0.30 0.31 0.31 0.31 0.29 0.25 0.23 0.22 0.23 0.24 0.27 0.30 0.37 0.51 0.59 0.59 0.54 0.54 0.55 0.54 0.55
0.01 0.02 0.06 0.12 0.23 0.30 0.40 0.43 0.58 0.71 0.71 0.64 0.69 0.81 0.92 0.84 0.79 0.74 0.70 0.60 0.52 0.47 0.48 0.47 0.40 0.36 0.31 0.30 0.33 0.35 0.36 0.34 0.34 0.33 0.32 0.31 0.29 0.30 0.35 0.41 0.46 0.53 0.59 0.62 0.60 0.61 0.61 0.55 0.52
0.01 0.02 0.05 0.09 0.16 0.17 0.25 0.39 0.52 0.65 0.71 0.65 0.71 1.00 1.07 0.81 0.79 0.74 0.72 0.59 0.48 0.52 0.52 0.50 0.45 0.44 0.44 0.42 0.42 0.41 0.40 0.38 0.40 0.41 0.41 0.41 0.46 0.48 0.50 0.57 0.62 0.64 0.67 0.69 0.68 0.69 0.64 0.54 0.53
0.01 0.04 0.08 0.08 0.10 0.12 0.18 0.31 0.49 0.60 0.68 0.63 0.70 1.01 1.31 1.09 0.87 0.79 0.70 0.54 0.45 0.55 0.61 0.51 0.54 0.54 0.55 0.57 0.53 0.51 0.47 0.46 0.48 0.49 0.46 0.48 0.57 0.62 0.62 0.69 0.72 0.74 0.78 0.79 0.76 0.68 0.60 0.54 0.56
0.03 0.06 0.13 0.10 0.09 0.12 0.18 0.21 0.38 0.64 0.72 0.73 0.79 1.15 1.67 1.60 1.16 0.82 0.78 0.67 0.59 0.59 0.58 0.60 0.60 0.63 0.63 0.69 0.74 0.71 0.63 0.60 0.59 0.58 0.54 0.49 0.50 0.56 0.69 0.77 0.79 0.81 0.83 0.79 0.73 0.67 0.61 0.59 0.61
0.04 0.08 0.11 0.10 0.12 0.17 0.20 0.23 0.37 0.52 0.66 0.76 0.80 1.23 1.62 1.60 1.37 1.07 0.98 0.85 0.77 0.73 0.73 0.81 0.86 0.88 0.93 0.97 0.98 0.94 0.86 0.80 0.73 0.67 0.60 0.54 0.54 0.59 0.69 0.85 0.92 0.90 0.86 0.81 0.75 0.71 0.69 0.68 0.67
0.05 0.08 0.07 0.08 0.13 0.20 0.23 0.28 0.36 0.43 0.64 0.70 0.80 1.17 1.61 1.69 1.55 1.58 1.56 1.36 1.23 1.22 1.20 1.24 1.32 1.29 1.22 1.15 1.14 1.09 1.01 0.95 0.87 0.74 0.67 0.67 0.70 0.78 0.90 0.86 0.93 0.97 0.97 0.91 0.88 0.82 0.75 0.78 0.74
0.05 0.06 0.09 0.07 0.12 0.20 0.27 0.34 0.38 0.43 0.59 0.86 0.85 0.98 1.36 1.57 1.68 1.79 1.89 1.77 1.83 1.86 1.81 1.69 1.67 1.56 1.55 1.45 1.25 1.30 1.22 1.16 1.09 0.98 0.88 0.89 0.97 1.16 1.25 1.07 1.13 1.15 1.16 1.12 1.12 1.07 1.01 0.98 0.90
0.07 0.09 0.09 0.08 0.10 0.19 0.27 0.33 0.35 0.48 0.65 0.99 1.07 1.12 1.37 1.63 1.98 2.11 2.03 2.00 2.10 2.35 2.26 2.00 2.07 2.00 1.82 1.69 1.66 1.66 1.51 1.51 1.50 1.51 1.29 1.33 1.67 1.80 1.57 1.61 1.58 1.60 1.56 1.42 1.38 1.33 1.21 1.08 1.03
0.09 0.09 0.09 0.12 0.18 0.23 0.30 0.37 0.42 0.54 0.86 1.11 1.31 1.49 1.62 1.93 2.18 2.33 2.36 2.35 2.37 2.37 2.22 2.32 2.50 2.35 2.35 2.45 2.38 2.21 2.14 2.13 2.00 2.05 1.87 1.92 1.93 1.86 1.87 1.99 1.98 1.94 1.86 1.84 1.84 1.67 1.44 1.40 1.43
0.08 0.09 0.11 0.17 0.25 0.29 0.37 0.48 0.59 0.63 0.88 1.18 1.35 1.70 2.02 2.31 2.43 2.56 2.67 2.58 2.75 2.65 2.43 2.52 2.52 2.52 2.66 2.75 2.83 2.86 2.72 2.69 2.56 2.49 2.26 2.35 2.41 2.42 2.37 2.49 2.50 2.50 2.49 2.49 2.35 2.17 2.10 1.85 1.74
0.06 0.07 0.13 0.24 0.30 0.34 0.45 0.61 0.65 0.75 0.88 1.09 1.36 1.63 1.73 2.03 2.42 3.02 3.07 3.20 3.37 3.24 3.02 2.89 2.98 2.83 2.79 3.01 3.14 2.98 3.12 3.05 3.14 3.11 2.76 2.74 2.77 2.81 2.99 2.93 3.01 2.90 3.05 2.99 2.76 2.45 2.34 2.22 1.96
0.07 0.11 0.18 0.24 0.33 0.42 0.51 0.63 0.66 0.84 1.04 1.13 1.26 1.45 1.73 1.93 2.14 2.66 3.13 3.31 3.52 3.66 3.51 3.27 3.18 3.18 3.06 3.21 3.45 3.40 3.22 3.30 3.34 3.48 3.29 3.19 3.21 3.30 3.36 3.34 3.35 3.12 3.08 3.12 2.98 2.67 2.52 2.38 2.21
0.08 0.16 0.25 0.28 0.29 0.36 0.44 0.66 0.66 0.76 1.04 1.27 1.30 1.40 1.73 2.12 2.38 2.76 3.14 3.48 3.78 3.83 3.61 3.58 3.41 3.62 3.74 3.94 3.90 3.90 3.93 3.93 3.84 3.78 3.87 3.77 3.77 3.84 3.73 3.81 3.78 3.55 3.39 3.37 3.32 3.18 2.85 2.64 2.58
0.14 0.24 0.36 0.36 0.33 0.29 0.44 0.81 0.83 0.83 1.11 1.26 1.42 1.58 1.78 2.10 2.43 2.80 3.10 3.32 3.67 3.76 3.77 3.92 3.72 3.79 4.02 4.07 4.06 4.20 4.49 4.61 4.41 4.17 4.20 4.16 4.28 4.37 4.41 4.21 3.94 3.77 3.63 3.62 3.74 3.50 3.16 3.04 3.06
0.18 0.26 0.33 0.40 0.36 0.35 0.47 0.78 0.83 0.86 1.10 1.23 1.29 1.46 1.66 1.89 2.19 2.56 3.00 3.33 3.54 3.68 3.67 3.88 4.09 3.95 4.18 4.32 4.40 4.61 4.84 5.02 4.88 4.65 4.49 4.52 4.57 4.52 4.63 4.55 4.35 4.15 4.01 3.93 3.63 3.61 3.49 3.44 3.34
0.19 0.19 0.24 0.33 0.34 0.35 0.47 0.67 0.83 0.87 1.12 1.18 1.34 1.33 1.52 1.81 2.10 2.45 2.99 3.40 3.54 3.74 3.81 3.90 4.25 4.27 4.60 4.74 4.60 4.81 4.95 5.02 5.01 4.98 4.89 5.05 5.11 4.91 4.88 4.69 4.57 4.49 4.39 4.21 3.96 3.92 3.83 3.59 3.41
0.19 0.17 0.25 0.32 0.34 0.39 0.53 0.73 0.92 0.99 1.16 1.25 1.42 1.48 1.78 1.96 2.13 2.45 2.91 3.36 3.86 3.97 4.10 4.09 4.23 4.50 4.69 4.87 4.92 5.26 5.27 5.12 5.28 5.51 5.46 5.61 5.68 5.39 5.26 5.10 4.95 4.72 4.49 4.34 4.18 3.98 3.81 3.51 3.40
0.22 0.18 0.29 0.41 0.46 0.52 0.61 0.79 0.99 1.12 1.13 1.40 1.67 1.73 2.21 2.38 2.33 2.52 3.03 3.42 3.85 4.11 4.25 4.45 4.60 4.66 4.80 5.29 5.73 6.09 6.42 6.40 6.33 6.48 6.47 6.27 6.14 5.99 5.75 5.67 5.39 5.00 4.71 4.40 4.13 3.93 3.64 3.34 3.33
0.21 0.26 0.35 0.50 0.50 0.61 0.75 1.16 1.27 1.25 1.29 1.51 1.84 1.98 2.35 2.51 2.64 2.57 2.71 3.09 3.52 3.90 4.13 4.37 4.69 5.07 5.59 6.23 6.67 6.95 7.28 7.42 7.16 6.88 6.69 6.44 6.26 6.07 5.64 5.39 5.27 4.98 4.49 4.18 4.01 3.81 3.59 3.35 3.23
0.17 0.20 0.29 0.36 0.47 0.71 0.76 1.37 1.54 1.50 1.60 1.72 1.89 1.95 2.20 2.19 2.38 2.52 2.58 2.83 3.16 3.48 3.86 4.28 4.71 5.34 6.23 6.91 7.30 7.63 7.76 7.77 7.60 7.30 6.87 6.43 6.05 5.63 5.24 4.97 4.68 4.42 4.07 3.83 3.59 3.49 3.45 3.37 3.15
0.11 0.13 0.20 0.25 0.36 0.60 0.69 1.23 1.58 1.56 1.78 1.89 2.08 2.11 2.11 2.14 2.08 2.17 2.29 2.50 2.90 3.27 3.67 4.12 4.57 5.31 6.04 6.67 7.23 7.67 7.81 7.76 7.51 7.04 6.47 5.92 5.46 4.98 4.51 4.20 3.93 3.69 3.41 3.18 2.98 2.95 3.04 3.09 3.00
0.09 0.15 0.24 0.32 0.54 0.86 0.69 1.05 1.70 1.85 2.02 2.16 2.13 2.18 2.39 2.34 2.17 2.15 2.14 2.25 2.51 2.90 3.29 3.75 4.18 4.77 5.41 5.88 6.47 6.85 7.01 6.88 6.45 5.87 5.24 4.85 4.58 4.24 3.84 3.49 3.24 2.94 2.71 2.52 2.44 2.41 2.42 2.56 2.62
0.12 0.27 0.63 0.81 0.91 0.97 0.69 1.12 1.91 2.08 2.01 2.12 2.20 2.29 2.44 2.42 2.31 2.20 2.16 2.19 2.35 2.61 2.95 3.25 3.49 3.98 4.32 4.68 5.18 5.52 5.55 5.37 5.05 4.74 4.48 4.07 3.64 3.25 3.00 2.70 2.48 2.25 2.16 2.12 2.14 2.14 2.14 2.18 2.25
0.14 0.25 0.68 1.05 0.99 0.95 1.01 1.68 2.28 2.17 1.96 1.91 2.05 2.15 2.21 2.14 2.13 2.11 2.10 2.18 2.27 2.28 2.51 2.69 2.76 3.01 3.27 3.48 3.72 3.82 3.84 3.82 3.78 3.67 3.35 2.97 2.56 2.22 2.12 2.05 1.86 1.78 1.79 1.76 1.84 1.87 1.91 1.96 1.99
0.15 0.23 0.31 0.56 0.66 1.03 1.55 2.13 2.59 2.30 2.14 2.07 1.93 1.79 1.96 1.99 1.95 2.01 2.10 2.22 2.24 2.13 2.11 2.22 2.30 2.35 2.46 2.54 2.67 2.74 2.75 2.82 2.80 2.75 2.59 2.32 2.11 1.87 1.74 1.70 1.67 1.61 1.63 1.61 1.64 1.63 1.58 1.67 1.75
0.14 0.21 0.33 0.60 1.09 1.41 1.71 2.28 2.84 2.77 2.68 2.61 2.27 1.95 2.00 2.03 2.04 2.00 1.96 2.05 2.09 1.94 1.91 2.01 2.10 2.06 2.07 2.02 2.02 1.96 2.09 2.14 2.16 2.09 1.94 1.90 1.90 1.78 1.66 1.55 1.50 1.43 1.38 1.38 1.49 1.49 1.48 1.48 1.47
0.19 0.25 0.36 0.61 0.85 1.36 2.01 2.61 2.56 2.83 2.92 2.77 2.41 2.04 2.03 2.01 2.08 2.08 2.03 1.96 1.92 1.89 1.86 1.77 1.77 1.77 1.73 1.71 1.77 1.72 1.70 1.70 1.66 1.53 1.46 1.50 1.53 1.51 1.45 1.29 1.23 1.20 1.17 1.19 1.30 1.34 1.36 1.38 1.35
0.23 0.28 0.37 0.78 0.90 1.02 1.76 2.67 2.57 2.87 3.00 2.80 2.69 2.39 2.17 2.21 2.17 2.07 2.03 1.93 1.89 1.77 1.69 1.62 1.59 1.55 1.53 1.55 1.61 1.53 1.46 1.44 1.44 1.39 1.30 1.28 1.31 1.27 1.25 1.18 1.09 1.03 1.06 1.15 1.18 1.16 1.16 1.22 1.20